DW4554 Weather Reports


time (UTC)temp
C
wind
direction
speed
KPH
gust
KPH
rain 1hr
cm
rain 24hr
cm
rain mn
cm
humidity
%
barometer
mb
20260903192404 17 248 0.0 0.0 0.00 0.03 0.03 75 1016.5
20260903191904 18 248 0.0 0.0 0.00 0.03 0.03 75 1016.4
20260903191404 18 248 0.0 0.0 0.00 0.03 0.03 74 1016.3
20260903190904 18 248 0.0 0.0 0.00 0.03 0.03 74 1016.4
20260903190404 18 248 0.0 0.0 0.00 0.03 0.03 73 1016.4
20260903185905 18 248 0.0 0.0 0.00 0.03 0.03 73 1016.3
20260903184904 18 248 0.0 0.0 0.00 0.03 0.03 72 1016.3
20260903184404 19 248 0.0 0.0 0.00 0.03 0.03 72 1016.3
20260903183904 19 248 0.0 0.0 0.00 0.03 0.03 71 1016.3
20260903183404 19 248 0.0 0.0 0.00 0.03 0.03 71 1016.3
20260903182904 20 248 0.0 0.0 0.00 0.03 0.03 71 1016.2
20260903182405 20 248 0.0 0.0 0.00 0.03 0.03 70 1016.2
20260903181904 20 248 0.0 0.0 0.00 0.03 0.03 70 1016.3
20260903181404 20 248 0.0 0.0 0.00 0.03 0.03 70 1016.2
20260903180904 20 248 0.0 0.0 0.00 0.03 0.03 69 1016.1
20260903180404 20 248 0.0 0.0 0.00 0.03 0.03 68 1016.0
20260903175904 21 248 0.0 3.2 0.00 0.03 0.03 68 1015.9
20260903175404 21 248 0.0 0.0 0.00 0.03 0.03 67 1015.9
20260903174905 21 248 0.0 0.0 0.00 0.03 0.03 66 1015.8
20260903174405 21 248 0.0 0.0 0.00 0.03 0.03 66 1015.9
20260903173904 21 248 0.0 0.0 0.00 0.03 0.03 65 1015.8
20260903173405 22 248 0.0 0.0 0.00 0.03 0.03 65 1015.9
20260903172904 22 248 0.0 0.0 0.00 0.03 0.03 64 1015.8
20260903172404 22 248 0.0 0.0 0.00 0.03 0.03 63 1015.8
20260903170904 22 248 0.0 0.0 0.00 0.03 0.03 61 1015.8
20260903170404 23 248 0.0 0.0 0.00 0.03 0.03 60 1015.9
20260903165904 23 248 0.0 0.0 0.00 0.03 0.03 60 1015.9
20260903165404 23 248 0.0 0.0 0.00 0.03 0.03 59 1015.8
20260903164906 23 248 0.0 0.0 0.00 0.03 0.03 58 1015.8
20260903163405 24 248 0.0 0.0 0.00 0.03 0.03 55 1015.7
20260903162904 24 248 1.6 4.8 0.00 0.03 0.03 54 1015.8
20260903162404 24 248 1.6 4.8 0.00 0.03 0.03 54 1015.8
20260903161904 25 248 1.6 4.8 0.00 0.03 0.03 53 1015.9
20260903160905 25 248 3.2 4.8 0.00 0.03 0.03 52 1015.8
20260903160405 25 248 0.0 0.0 0.00 0.03 0.03 52 1015.8
20260903155904 25 248 1.6 3.2 0.00 0.03 0.03 51 1015.8
20260903155404 26 248 1.6 3.2 0.00 0.03 0.03 51 1015.8
20260903154904 26 248 3.2 4.8 0.00 0.03 0.03 49 1015.8
20260903154405 26 248 1.6 4.8 0.00 0.03 0.03 49 1015.8
20260903152905 26 281 3.2 9.7 0.00 0.03 0.03 49 1015.9
20260903152404 26 270 3.2 8.0 0.00 0.03 0.03 49 1015.8
20260903151904 26 297 1.6 4.8 0.00 0.03 0.03 50 1015.9
20260903151405 25 276 3.2 8.0 0.00 0.03 0.03 51 1015.9
20260903150904 25 300 1.6 4.8 0.00 0.03 0.03 52 1015.9
20260903150404 25 300 1.6 4.8 0.03 0.03 0.03 52 1015.9
20260903145904 25 300 0.0 4.8 0.03 0.03 0.03 53 1016.0
20260903145404 25 308 3.2 4.8 0.03 0.03 0.03 54 1015.9
20260903144905 25 312 1.6 3.2 0.03 0.03 0.03 54 1015.9
20260903143904 24 312 3.2 4.8 0.03 0.03 0.03 56 1015.9
20260903143404 24 311 0.0 0.0 0.03 0.03 0.03 56 1016.1
20260903142405 24 311 3.2 4.8 0.03 0.03 0.03 57 1016.2
20260903141404 24 313 0.0 0.0 0.03 0.03 0.03 56 1016.0
20260903140904 24 313 0.0 0.0 0.03 0.03 0.03 56 1016.1
20260903140404 24 313 0.0 0.0 0.00 0.00 0.00 55 1016.0
20260903135404 24 313 1.6 4.8 0.00 0.00 0.00 55 1016.1
20260903134904 24 313 1.6 3.2 0.00 0.00 0.00 56 1016.0
20260903133905 24 313 0.0 1.6 0.00 0.00 0.00 57 1016.1
20260903132904 24 313 1.6 4.8 0.00 0.00 0.00 55 1016.2
20260903132404 24 313 1.6 4.8 0.00 0.00 0.00 55 1016.2
20260903131904 24 312 1.6 4.8 0.00 0.00 0.00 55 1016.3
20260903131404 24 311 1.6 4.8 0.00 0.00 0.00 56 1016.3
20260903130905 24 34 1.6 4.8 0.00 0.00 0.00 56 1016.2
20260903130404 23 34 1.6 4.8 0.00 0.00 0.00 56 1016.1
20260903124904 23 73 1.6 4.8 0.00 0.00 0.00 58 1016.6
20260903124404 23 101 0.0 4.8 0.00 0.00 0.00 59 1016.6
20260903123904 23 225 0.0 3.2 0.00 0.00 0.00 58 1016.6
20260903123404 23 225 0.0 3.2 0.00 0.00 0.00 58 1016.8
20260903122904 23 225 0.0 4.8 0.00 0.00 0.00 58 1016.8
20260903121904 22 238 0.0 1.6 0.00 0.00 0.00 60 1017.0
20260903121404 22 238 0.0 4.8 0.00 0.00 0.00 58 1017.1
20260903120404 23 236 4.8 11.3 0.00 0.00 0.00 58 1017.1
20260903115404 23 232 3.2 12.9 0.00 0.00 0.00 57 1017.2
20260903114904 23 214 4.8 16.1 0.00 0.00 0.00 56 1017.2
20260903114405 23 226 6.4 16.1 0.00 0.00 0.00 57 1017.2
20260903113404 23 207 9.7 19.3 0.00 0.00 0.00 57 1017.2
20260903112904 22 152 4.8 14.5 0.00 0.00 0.00 59 1017.1
20260903112404 22 182 3.2 9.7 0.00 0.00 0.00 59 1017.2
20260903111405 22 205 4.8 9.7 0.00 0.00 0.00 63 1017.3
20260903110904 22 201 6.4 14.5 0.00 0.00 0.00 64 1017.3
20260903105904 22 175 4.8 8.0 0.00 0.00 0.00 65 1017.4
20260903105404 22 157 3.2 8.0 0.00 0.00 0.00 64 1017.4
20260903104904 22 156 1.6 4.8 0.00 0.00 0.00 65 1017.4
20260903104404 22 190 3.2 4.8 0.00 0.00 0.00 65 1017.5
20260903103905 22 188 0.0 4.8 0.00 0.00 0.00 66 1017.5
20260903102404 21 180 1.6 4.8 0.00 0.00 0.00 65 1017.6
20260903101904 21 180 1.6 4.8 0.00 0.00 0.00 65 1017.7
20260903101404 21 180 0.0 3.2 0.00 0.00 0.00 65 1017.7
20260903100904 21 180 1.6 8.0 0.00 0.00 0.00 66 1017.8
20260903100404 21 192 1.6 9.7 0.00 0.00 0.00 66 1017.8
20260903095904 21 191 3.2 9.7 0.00 0.00 0.00 66 1017.8
20260903095405 21 199 3.2 8.0 0.00 0.00 0.00 67 1017.8
20260903094904 21 180 0.0 4.8 0.00 0.00 0.00 65 1017.9
20260903094404 21 180 1.6 8.0 0.00 0.00 0.00 66 1018.0
20260903093904 21 179 3.2 8.0 0.00 0.00 0.00 66 1018.0
20260903093404 21 195 1.6 4.8 0.00 0.00 0.00 66 1018.0
20260903092905 21 227 1.6 8.0 0.00 0.00 0.00 67 1018.1
20260903092404 21 198 3.2 8.0 0.00 0.00 0.00 68 1018.1
20260903091404 21 241 3.2 8.0 0.00 0.00 0.00 67 1018.1
20260903090904 21 295 4.8 9.7 0.00 0.00 0.00 66 1018.2
20260903090404 21 280 4.8 9.7 0.00 0.00 0.00 65 1018.2
20260903085904 21 234 3.2 9.7 0.00 0.00 0.00 67 1018.3
20260903085404 21 310 4.8 11.3 0.00 0.00 0.00 66 1018.3
20260903084904 21 297 8.0 16.1 0.00 0.00 0.00 66 1018.3
20260903084404 21 310 6.4 11.3 0.00 0.00 0.00 67 1018.3
20260903083904 21 287 8.0 12.9 0.00 0.00 0.00 67 1018.3
20260903083404 21 293 6.4 11.3 0.00 0.00 0.00 70 1018.2
20260903082905 21 208 4.8 8.0 0.00 0.00 0.00 74 1018.1
20260903082405 20 197 1.6 4.8 0.00 0.00 0.00 74 1018.2
20260903081904 20 194 3.2 8.0 0.00 0.00 0.00 75 1018.1
20260903080905 20 202 4.8 8.0 0.00 0.00 0.00 77 1018.1
20260903075905 19 184 1.6 3.2 0.00 0.00 0.00 78 1018.0
20260903075405 19 184 1.6 8.0 0.00 0.00 0.00 79 1018.0
20260903074904 18 181 3.2 8.0 0.00 0.00 0.00 82 1018.0
20260903074404 18 175 3.2 9.7 0.00 0.00 0.00 82 1018.1
20260903073904 18 173 3.2 8.0 0.00 0.00 0.00 84 1018.1
20260903073404 17 173 3.2 4.8 0.00 0.00 0.00 84 1018.0
20260903072905 17 173 3.2 8.0 0.00 0.00 0.00 85 1018.0
20260903072404 17 173 4.8 8.0 0.00 0.00 0.00 86 1018.0
20260903071904 17 173 3.2 8.0 0.00 0.00 0.00 88 1018.0
20260903071404 16 173 1.6 4.8 0.00 0.00 0.00 90 1017.9
20260903070904 16 244 3.2 4.8 0.00 0.00 0.00 91 1017.9
20260903070405 16 55 1.6 4.8 0.00 0.00 0.00 92 1018.0
20260903065904 16 55 0.0 3.2 0.00 0.00 0.00 92 1017.9
20260903065404 16 55 0.0 3.2 0.00 0.00 0.00 92 1017.9
20260903064904 15 55 0.0 3.2 0.00 0.00 0.00 93 1017.9
20260903064404 15 55 1.6 4.8 0.00 0.00 0.00 92 1017.9
20260903063905 15 59 0.0 3.2 0.00 0.00 0.00 93 1017.9
20260903062905 15 59 1.6 4.8 0.00 0.00 0.00 92 1018.2
20260903062404 14 55 3.2 4.8 0.00 0.00 0.00 92 1018.0
20260903061904 14 55 1.6 4.8 0.00 0.00 0.00 92 1018.0
20260903061406 14 55 1.6 4.8 0.00 0.00 0.00 92 1018.1
20260903060904 14 209 0.0 3.2 0.00 0.00 0.00 92 1018.1
20260903060404 14 209 0.0 3.2 0.00 0.00 0.00 92 1018.2
20260903055904 13 223 1.6 4.8 0.00 0.00 0.00 92 1018.3
20260903055404 13 223 1.6 8.0 0.00 0.00 0.00 92 1018.3
20260903054905 13 234 6.4 12.9 0.00 0.00 0.00 92 1018.4
20260903054404 13 228 3.2 8.0 0.00 0.00 0.00 92 1018.2
20260903053904 13 55 1.6 3.2 0.00 0.00 0.00 92 1018.0
20260903053404 13 55 1.6 1.6 0.00 0.00 0.00 92 1018.0
20260903052904 13 55 1.6 3.2 0.00 0.00 0.00 92 1017.9
20260903052404 13 55 1.6 4.8 0.00 0.00 0.00 92 1017.9
20260903051904 13 55 0.0 0.0 0.00 0.00 0.00 92 1017.9
20260903050904 13 55 0.0 3.2 0.00 0.00 0.00 92 1017.7
20260903050404 13 55 0.0 3.2 0.00 0.00 0.00 92 1017.6
20260903045904 13 55 1.6 4.8 0.00 0.00 0.00 92 1017.6
20260903045404 13 61 3.2 4.8 0.00 0.00 0.00 92 1017.7
20260903044904 12 56 3.2 4.8 0.00 0.00 0.00 92 1017.6
20260903044404 12 54 4.8 8.0 0.00 0.00 0.00 92 1017.7
20260903042904 12 61 0.0 0.0 0.00 0.00 0.00 92 1017.8
20260903042404 12 61 0.0 0.0 0.00 0.00 0.00 92 1017.9
20260903041905 12 61 0.0 0.0 0.00 0.00 0.00 92 1017.8
20260903041404 12 61 0.0 0.0 0.00 0.00 0.00 92 1017.9
20260903040905 12 61 0.0 0.0 0.00 0.00 0.00 92 1017.9
20260903040404 12 61 0.0 0.0 0.00 0.00 0.00 92 1017.8
20260903035904 12 61 0.0 0.0 0.00 0.00 0.00 92 1017.7
20260903035404 12 61 0.0 0.0 0.00 0.00 0.00 92 1017.7
20260903033404 12 61 0.0 0.0 0.00 0.00 0.00 92 1017.7
20260903032904 12 61 0.0 0.0 0.00 0.00 0.00 92 1017.7
20260903032404 12 61 0.0 1.6 0.00 0.00 0.00 92 1017.7
20260903031404 13 61 1.6 3.2 0.00 0.00 0.00 92 1017.7
20260903030904 13 61 0.0 0.0 0.00 0.00 0.00 92 1017.6
20260903030404 13 61 0.0 0.0 0.00 0.00 0.00 92 1017.7
20260903025904 13 61 0.0 0.0 0.00 0.00 0.00 92 1017.7
20260903025404 13 61 0.0 0.0 0.00 0.00 0.00 92 1017.8
20260903024904 13 61 0.0 0.0 0.00 0.00 0.00 91 1017.8
20260903024404 13 61 0.0 0.0 0.00 0.00 0.00 91 1017.7
20260903023904 13 61 0.0 0.0 0.00 0.00 0.00 91 1017.7
20260903023404 13 61 0.0 0.0 0.00 0.00 0.00 91 1017.7
20260903022904 13 61 0.0 0.0 0.00 0.00 0.00 91 1017.7
20260903022405 13 61 0.0 0.0 0.00 0.00 0.00 91 1017.6
20260903021904 13 61 0.0 0.0 0.00 0.00 0.00 91 1017.6
20260903021404 13 61 1.6 3.2 0.00 0.00 0.00 91 1017.6
20260903020904 13 61 0.0 1.6 0.00 0.00 0.00 91 1017.6
20260903020404 13 61 0.0 3.2 0.00 0.00 0.00 91 1017.5
20260903015904 13 61 0.0 0.0 0.00 0.00 0.00 91 1017.6
20260903015405 13 61 0.0 0.0 0.00 0.00 0.00 91 1017.7
20260903014904 13 61 0.0 0.0 0.00 0.00 0.00 91 1017.7
20260903014404 13 61 0.0 4.8 0.00 0.00 0.00 91 1017.8
20260903013904 13 61 1.6 3.2 0.00 0.00 0.00 91 1017.7
20260903013405 13 61 1.6 4.8 0.00 0.00 0.00 91 1017.7
20260903012904 13 61 0.0 4.8 0.00 0.00 0.00 91 1017.7
20260903012404 14 61 1.6 3.2 0.00 0.00 0.00 91 1017.7
20260903011905 14 61 1.6 4.8 0.00 0.00 0.00 90 1017.7
20260903011404 14 61 1.6 4.8 0.00 0.00 0.00 90 1017.7
20260903005904 14 66 3.2 4.8 0.00 0.00 0.00 90 1017.8
20260903005404 14 68 4.8 8.0 0.00 0.00 0.00 89 1017.8
20260903004904 14 243 1.6 4.8 0.00 0.00 0.00 89 1017.8
20260903004404 15 237 1.6 3.2 0.00 0.00 0.00 89 1017.8
20260903003904 15 237 0.0 0.0 0.00 0.00 0.00 89 1017.8
20260903003404 15 237 0.0 0.0 0.00 0.00 0.00 89 1017.8
20260903002904 15 237 0.0 0.0 0.00 0.00 0.00 89 1017.9
20260903002404 15 237 0.0 0.0 0.00 0.00 0.00 89 1018.0
20260903001904 15 237 0.0 1.6 0.00 0.00 0.00 88 1017.9
20260903000904 15 58 0.0 3.2 0.00 0.00 0.00 87 1018.0
20260902235905 15 68 0.0 1.6 0.00 0.00 0.00 87 1017.8
20260902235404 15 68 0.0 3.2 0.00 0.00 0.00 86 1017.7
20260902234904 15 68 0.0 1.6 0.00 0.00 0.00 86 1017.8
20260902234405 15 68 0.0 4.8 0.00 0.00 0.00 85 1017.7
20260902233904 16 68 1.6 4.8 0.00 0.00 0.00 85 1017.7
20260902233404 16 68 1.6 4.8 0.00 0.00 0.00 85 1017.8
20260902232904 16 65 1.6 8.0 0.00 0.00 0.00 85 1017.9
20260902232404 16 46 3.2 8.0 0.00 0.00 0.00 85 1017.8
20260902231905 16 60 1.6 8.0 0.00 0.00 0.00 83 1017.8
20260902231405 16 54 1.6 8.0 0.00 0.00 0.00 83 1017.9
20260902230904 16 40 4.8 22.5 0.00 0.00 0.00 82 1018.0
20260902230404 15 200 1.6 8.0 0.00 0.00 0.00 81 1018.1
20260902225905 15 231 8.0 11.3 0.00 0.00 0.00 81 1018.1
20260902225405 15 276 0.0 3.2 0.00 0.00 0.00 81 1017.8
20260902224904 15 276 0.0 0.0 0.00 0.00 0.00 81 1017.7
20260902224404 15 276 0.0 1.6 0.00 0.00 0.00 81 1017.7
20260902223905 15 276 0.0 11.3 0.00 0.00 0.00 81 1017.9
20260902223405 15 32 0.0 4.8 0.00 0.00 0.00 81 1017.7
20260902222904 15 44 0.0 1.6 0.00 0.00 0.00 81 1017.5
20260902222404 15 44 0.0 0.0 0.00 0.00 0.00 81 1017.4
20260902221904 15 44 1.6 3.2 0.00 0.00 0.00 81 1017.4
20260902221404 15 44 3.2 4.8 0.00 0.00 0.00 81 1017.4
20260902220904 15 59 3.2 4.8 0.00 0.00 0.00 81 1017.4
20260902220405 15 85 1.6 4.8 0.00 0.00 0.00 81 1017.4
20260902215904 15 85 3.2 4.8 0.00 0.00 0.00 81 1017.5
20260902215405 15 86 1.6 4.8 0.00 0.00 0.00 81 1017.6
20260902214405 15 86 1.6 3.2 0.00 0.00 0.00 80 1017.6
20260902213904 15 86 0.0 0.0 0.00 0.00 0.00 79 1017.5
20260902213404 15 86 0.0 3.2 0.00 0.00 0.00 79 1017.6
20260902212404 15 86 0.0 0.0 0.00 0.00 0.00 78 1017.5
20260902211904 15 86 0.0 0.0 0.00 0.00 0.00 78 1017.5
20260902210904 16 86 0.0 0.0 0.00 0.00 0.00 77 1017.6
20260902210404 16 86 0.0 0.0 0.00 0.00 0.00 77 1017.5
20260902204904 16 86 0.0 0.0 0.00 0.00 0.00 76 1017.4
20260902204404 16 86 0.0 0.0 0.00 0.00 0.00 75 1017.3
20260902203904 16 86 0.0 0.0 0.00 0.00 0.00 75 1017.3
20260902203404 16 86 0.0 0.0 0.00 0.00 0.00 74 1017.3
20260902202905 17 86 0.0 0.0 0.00 0.00 0.00 74 1017.2
20260902202405 17 86 0.0 0.0 0.00 0.00 0.00 73 1017.2
20260902201904 17 86 0.0 0.0 0.00 0.00 0.00 73 1017.2
20260902200905 17 86 0.0 0.0 0.00 0.00 0.00 72 1017.0
20260902200405 17 86 0.0 0.0 0.00 0.00 0.00 71 1017.1
20260902195905 17 86 0.0 0.0 0.00 0.00 0.00 71 1017.1
20260902195404 17 86 1.6 3.2 0.00 0.00 0.00 70 1017.0
20260902194904 17 86 1.6 4.8 0.00 0.00 0.00 70 1017.0
20260902194405 17 86 3.2 4.8 0.00 0.00 0.00 70 1017.0
20260902193906 18 252 1.6 4.8 0.00 0.00 0.00 69 1017.0
20260902192904 18 252 0.0 0.0 0.00 0.00 0.00 68 1017.1